Location: ?????????
(54.7630°N, 39.4991°E)
Time: 11:10:23
(UTC+00:00)

USA 267 - Pass Details

Date: 14 April 2026
Orbit: 1101 x 1107 km, 123.0° (Epoch: 10 January)

Event Time Altitude Azimuth Distance (km) Brightness Sun altitude
Rises 23:24:24 0° 63° (ENE) 3,936 7.2 -20.6°
Reaches altitude 10° 23:26:58 10° 67° (ENE) 2,975 6.3 -20.4°
Maximum altitude 23:33:25 57° 145° (SE) 1,292 3.5 -19.9°
Enters shadow 23:36:26 32° 209° (SSW) 1,799 3.8 -19.7°
